User: anonymous   Login
Location: Goheenville
(40.9070°N, 79.3720°W)
Time: 14:45:31
(UTC-05:00)
Language:

NOAA 11 - Orbit

View from above orbital plane
View from above orbital plane
View from above satellite
View from above satellite

Ground track
Ground track

The orbit data is extracted from the following two-line orbital elements,

1 19531U 88089A   18050.71486477 -.00000040 +00000-0 +74025-6 0  9999
2 19531 098.5161 103.5853 0012002 051.2202 309.0042 14.15221764517513
Epoch (UTC): 19 February 2018 17:09:24
Eccentricity: 0.0012002
inclination: 98.5161°
perigee height: 833 km
apogee height: 850 km
right ascension of ascending node: 103.5853°
argument of perigee: 51.2202°
revolutions per day: 14.15221764
mean anomaly at epoch: 309.0042°
orbit number at epoch: 51751

The dashed part of the orbit path shows where the satellite is in the earth's shadow,  

DLR